This is the latest recevied weather packets stored in our database for station/object WB0OCV. If no packets are shown the sender has not sent any weather packets the latest 10 day(s).
| Time | Temp. | Humidity | Pressure | Rain* | Wind** | Luminosity | Snow |
|---|---|---|---|---|---|---|---|
| 1777834475 | 11.11° C | 52% | 1007.9 hPa | 0 mm | - | 205 W/m² | - |
| 1777834174 | 11.11° C | 53% | 1008 hPa | 0 mm | - | 222 W/m² | - |
| 1777833871 | 11.67° C | 55% | 1007.8 hPa | 0 mm | - | 186 W/m² | - |
| 1777833567 | 12.22° C | 53% | 1008 hPa | 0 mm | - | 317 W/m² | - |
| 1777833264 | 11.67° C | 54% | 1008 hPa | 0 mm | - | 431 W/m² | - |
| 1777832961 | 11.67° C | 54% | 1007.9 hPa | 0 mm | - | 390 W/m² | - |
| 1777832660 | 11.67° C | 55% | 1007.9 hPa | 0 mm | - | 335 W/m² | - |
| 1777832357 | 11.11° C | 56% | 1008.1 hPa | 0 mm | - | 326 W/m² | - |
| 1777832054 | 11.67° C | 57% | 1008.2 hPa | 0 mm | - | 318 W/m² | - |
| 1777831750 | 12.78° C | 58% | 1007.8 hPa | 0 mm | - | 375 W/m² | - |
| 1777831448 | 11.67° C | 58% | 1007.8 hPa | 0 mm | - | 806 W/m² | - |
| 1777831144 | 11.67° C | 61% | 1007.8 hPa | 0 mm | - | 471 W/m² | - |
| 1777830843 | 11.67° C | 62% | 1007.6 hPa | 0 mm | - | 468 W/m² | - |
| 1777830538 | 12.22° C | 60% | 1007.6 hPa | 0 mm | - | 425 W/m² | - |
| 1777830236 | 12.78° C | 58% | 1007.7 hPa | 0 mm | - | 445 W/m² | - |
| 1777829931 | 11.67° C | 65% | 1007.6 hPa | 0 mm | - | 911 W/m² | - |
| 1777829628 | 11.67° C | 66% | 1007.4 hPa | 0 mm | - | 247 W/m² | - |
| 1777829324 | 11.67° C | 66% | 1007.6 hPa | 0 mm | - | 380 W/m² | - |
| 1777829022 | 11.11° C | 66% | 1007.5 hPa | 0 mm | - | 607 W/m² | - |
| 1777828718 | 11.11° C | 68% | 1007.4 hPa | 0 mm | - | 662 W/m² | - |
| 1777828415 | 11.11° C | 68% | 1007.6 hPa | 0 mm | - | 551 W/m² | - |
| 1777828112 | 10.56° C | 69% | 1007.4 hPa | 0 mm | - | 562 W/m² | - |
| 1777827808 | 10.56° C | 68% | 1007.5 hPa | 0 mm | - | 987 W/m² | - |
| 1777827505 | 10.56° C | 70% | 1007.6 hPa | 0 mm | - | 522 W/m² | - |
| 1777827204 | 10° C | 71% | 1007.6 hPa | 0 mm | - | 351 W/m² | - |
* Rain latest hour (hover to see other rain measurements)
** Current wind speed in m/s (hover to see current wind gust speed)